Wind_Speed
28 27 27 26 25 24 23 22 22 22 22 22 22 20 19 21 23 25 24 23 24 26 26 25 24 24 22 20 19 17 16 15 13 12 10 9 7 6 6 7 8 8
28 27 27 26 25 24 23 22 22 22 23 22 22 22 20 21 23 25 26 25 25 26 28 27 27 26 25 23 21 19 18 17 16 14 13 11 9 8 7 8 9 9
28 28 27 26 25 24 23 22 22 23 23 23 23 23 23 22 23 26 27 26 26 27 28 28 28 28 27 25 24 22 20 18 18 17 15 14 12 10 10 9 10 10
28 27 27 26 25 24 24 24 23 23 24 24 24 24 24 24 24 26 27 28 27 28 28 29 29 29 29 27 26 24 22 20 19 18 17 16 14 13 12 11 11 11
28 27 27 26 26 25 25 25 24 23 24 24 24 25 25 25 25 27 28 28 29 29 29 29 30 30 30 29 28 26 24 22 21 20 18 17 17 15 14 13 12 12
29 28 27 27 26 26 26 25 24 24 24 24 24 25 26 26 27 28 28 29 29 30 30 30 30 31 31 30 29 28 26 24 23 21 20 19 18 17 16 15 14 14
29 29 28 27 27 27 26 26 25 25 25 24 24 24 25 27 28 29 30 30 31 31 31 31 31 31 31 31 30 29 27 26 25 23 22 21 19 18 17 16 16 16
29 29 29 29 29 28 27 26 26 26 25 25 25 24 25 26 28 30 31 32 32 32 32 32 31 32 32 31 30 30 29 27 26 25 23 22 21 19 19 19 18 18
29 30 30 30 30 30 28 27 26 25 26 26 25 24 25 26 27 30 32 33 33 33 33 32 32 32 33 32 31 31 30 29 28 26 25 24 22 21 21 21 21 20
27 28 30 31 31 31 29 28 27 26 26 26 26 25 26 26 27 29 31 33 34 34 34 33 33 33 33 33 32 31 31 30 29 28 27 26 24 23 23 23 23 21
24 25 27 28 29 30 30 29 29 28 28 27 27 27 28 27 27 29 31 33 34 35 35 34 33 33 34 34 33 32 32 31 31 30 29 28 27 25 25 25 24 23
24 24 24 24 25 27 28 29 30 30 30 29 29 29 30 30 30 30 31 33 34 34 35 35 34 34 35 35 34 34 33 33 33 32 31 30 29 27 26 25 25 24
27 25 24 22 23 24 24 26 28 29 30 30 30 30 31 32 32 31 32 33 33 34 35 36 35 35 35 36 36 35 35 34 34 34 33 32 30 28 27 27 26 26
29 27 25 25 24 24 24 24 25 26 27 28 29 30 31 32 33 33 33 33 33 34 35 36 37 37 36 37 37 37 36 35 35 35 34 34 32 30 29 28 27 27
30 28 27 27 27 27 27 26 25 25 26 26 28 29 30 32 33 34 34 35 35 34 35 37 38 38 37 37 38 38 38 36 36 36 36 35 34 32 31 31 29 28
30 30 29 29 30 30 29 28 28 27 27 27 27 28 29 31 32 34 35 36 36 36 37 38 40 39 38 38 38 39 39 38 37 37 37 37 36 34 34 33 32 30
31 32 32 32 32 31 31 30 30 30 30 29 29 28 29 30 31 33 35 36 36 37 38 39 40 40 39 39 39 39 40 40 39 39 39 38 37 37 36 36 35 32
33 34 34 34 33 33 33 32 31 32 32 31 30 29 29 29 31 32 34 35 36 36 38 39 40 40 40 40 40 40 41 41 41 41 40 40 39 38 38 38 38 35
34 35 35 35 34 33 33 32 32 32 32 31 30 29 28 29 29 30 32 34 35 36 37 38 39 40 40 41 42 42 43 43 43 43 42 41 41 40 40 40 40 38
35 36 35 34 33 33 32 32 32 32 31 31 30 29 29 29 29 30 30 32 34 35 36 37 38 39 40 41 43 43 44 45 46 46 45 43 43 42 42 42 42 41
36 35 34 34 33 33 32 32 32 32 31 31 31 31 31 30 30 30 31 31 33 34 35 36 37 38 39 41 43 44 46 47 48 48 48 46 45 44 44 44 44 44
36 35 34 34 33 33 33 32 32 32 32 32 33 33 33 33 32 32 32 33 33 34 35 36 37 38 39 40 43 45 46 48 49 50 50 49 48 47 47 47 46 46
35 35 34 33 33 33 33 32 32 33 33 34 35 36 36 36 35 35 35 35 35 35 36 37 37 39 39 40 42 44 46 48 50 51 52 52 51 51 50 50 48 48
34 34 33 34 34 33 32 32 33 34 35 36 36 37 38 38 38 38 38 37 37 37 38 38 39 40 40 41 42 44 45 48 51 52 53 53 53 53 53 52 51 50
34 34 34 34 34 33 33 33 33 34 35 36 37 38 38 39 40 41 41 41 40 40 41 41 41 42 42 42 43 44 45 48 51 53 54 55 55 56 55 55 54 53
34 35 35 35 34 33 32 32 33 34 35 36 37 38 39 39 41 42 43 43 43 43 44 44 44 44 44 43 44 45 45 47 50 53 55 56 57 58 58 58 57 55
Wind_Direction
222 223 225 226 225 226 227 226 227 229 229 230 231 229 223 217 213 211 211 210 211 212 214 215 216 222 225 225 225 224 226 233 241 247 253 264 281 303 321 329 335 343
223 224 226 227 227 227 228 228 228 230 231 232 233 233 227 219 213 211 211 212 213 214 215 216 217 221 225 227 227 227 228 232 240 247 252 260 270 284 299 310 318 325
224 225 227 229 230 230 231 230 230 230 232 233 233 233 229 222 215 213 214 215 215 216 217 217 219 222 225 227 228 229 230 232 238 244 250 256 264 274 284 295 305 311
226 227 228 231 232 232 232 232 231 231 233 234 235 235 232 226 220 217 217 218 218 219 220 219 220 223 226 227 229 231 231 232 236 241 247 254 259 266 274 283 293 300
228 229 229 231 233 234 234 233 233 232 234 235 236 236 234 230 224 221 220 221 222 223 223 223 223 224 227 227 229 232 233 233 236 239 244 250 255 261 267 275 283 290
228 228 230 231 233 235 236 236 235 233 233 234 234 235 235 233 229 226 224 224 225 226 227 227 226 226 228 228 229 231 233 235 237 238 242 248 253 258 263 269 275 282
229 229 230 231 233 235 236 236 235 232 231 232 233 233 233 233 232 230 228 226 227 228 229 229 228 229 230 230 229 232 233 235 237 238 242 248 253 258 262 267 271 276
231 231 232 232 234 236 237 236 234 230 229 231 232 231 231 232 232 232 231 230 229 230 230 231 230 230 232 231 230 232 234 235 237 239 243 248 253 258 263 265 268 272
231 232 233 234 235 238 238 238 235 231 229 229 232 233 232 232 231 232 234 233 231 231 231 232 231 231 233 233 231 232 234 235 237 239 243 248 252 257 261 265 267 270
228 230 233 235 236 238 238 237 237 234 231 230 231 234 235 234 232 232 234 234 233 232 232 231 231 231 233 234 232 232 234 236 238 239 243 247 251 255 259 264 266 269
223 225 228 231 234 236 236 236 237 236 234 233 232 235 237 237 235 233 234 235 234 234 233 232 231 231 233 234 233 233 234 237 238 240 242 246 250 254 257 262 266 268
225 224 225 228 230 233 234 234 235 237 237 236 235 236 238 238 237 235 234 235 235 235 235 234 232 232 232 234 235 234 234 237 239 240 242 246 249 253 257 261 265 268
229 228 229 231 232 233 234 234 235 237 238 237 236 236 237 237 237 237 236 236 235 235 235 236 234 232 232 234 235 236 235 236 239 241 243 246 249 252 256 259 262 266
233 233 233 235 237 238 238 238 237 238 239 239 237 235 235 236 236 237 238 238 237 235 235 236 236 234 232 232 234 236 236 236 238 241 244 247 250 252 255 257 260 263
232 233 235 236 238 240 241 241 242 242 243 241 239 236 234 235 237 237 238 238 237 236 234 235 236 235 233 232 234 236 238 238 238 241 245 248 251 253 255 256 258 260
227 230 232 234 237 239 241 242 244 246 246 245 243 240 237 236 237 238 239 239 238 236 235 235 235 235 234 234 234 236 239 240 240 242 245 249 251 253 255 256 257 258
223 226 229 230 232 236 238 240 241 244 246 247 246 245 242 240 239 239 240 242 241 239 237 237 237 236 235 235 236 237 239 240 242 244 245 248 250 252 255 257 257 257
222 225 227 229 230 232 235 236 238 241 244 246 247 247 247 245 244 242 242 244 244 243 241 240 240 239 237 237 237 237 239 240 242 244 246 247 249 251 254 257 258 257
224 227 228 230 231 232 234 234 236 239 242 245 248 249 250 249 248 247 246 246 247 247 245 244 243 242 240 238 237 238 239 241 242 244 246 247 249 251 253 256 258 258
226 229 230 231 232 233 234 235 237 239 242 246 248 250 250 250 250 249 249 248 249 250 250 248 247 246 244 241 239 238 239 241 242 243 245 246 248 250 252 254 256 258
227 230 231 232 233 233 235 236 238 241 244 246 249 251 251 251 252 252 251 251 251 251 252 251 250 250 248 245 241 240 239 240 242 244 245 246 247 249 251 252 254 257
228 229 230 232 233 234 236 238 240 243 245 247 249 252 254 254 254 253 253 253 252 252 252 253 253 252 250 248 245 242 241 241 242 244 245 246 246 247 249 250 252 254
228 229 231 233 235 236 238 240 242 244 245 247 249 252 255 257 258 257 256 256 255 254 254 254 254 253 252 250 248 245 243 242 243 245 246 247 247 248 248 249 250 252
229 230 232 233 235 237 239 240 240 241 242 244 246 248 251 254 257 257 258 257 257 256 255 254 254 254 253 252 249 247 245 244 244 245 247 249 249 249 250 250 250 250
229 229 230 231 233 234 236 237 238 239 240 242 243 244 246 248 250 253 255 256 256 257 256 255 254 254 254 254 252 250 247 244 244 245 246 248 249 250 251 251 250 249
228 228 228 229 231 232 235 237 239 239 240 241 242 243 244 245 247 249 252 253 254 254 255 256 256 256 256 256 256 254 250 245 244 244 245 246 248 249 250 251 251 250
Height
3193 3194 3196 3197 3199 3200 3202 3203 3205 3206 3207 3208 3209 3211 3212 3214 3215 3215 3216 3218 3219 3220 3221 3222 3222 3223 3224 3225 3225 3226 3227 3227 3228 3228 3228 3228 3228 3228 3228 3228 3228 3228
3190 3192 3193 3195 3197 3198 3200 3201 3203 3203 3205 3206 3207 3209 3210 3211 3212 3213 3214 3215 3216 3217 3219 3220 3221 3221 3222 3223 3224 3225 3225 3226 3226 3227 3227 3227 3227 3228 3228 3227 3227 3227
3188 3190 3191 3193 3194 3196 3198 3199 3200 3201 3203 3204 3205 3206 3207 3209 3210 3211 3212 3213 3214 3215 3216 3218 3219 3219 3221 3222 3222 3223 3224 3225 3225 3225 3225 3226 3226 3227 3227 3227 3226 3226
3185 3187 3189 3191 3192 3194 3196 3197 3198 3199 3200 3201 3203 3204 3205 3206 3207 3209 3210 3211 3212 3213 3214 3216 3217 3218 3219 3220 3221 3221 3222 3223 3223 3223 3224 3224 3225 3225 3226 3226 3226 3225
3183 3185 3187 3188 3190 3191 3193 3194 3196 3197 3198 3199 3200 3201 3202 3204 3205 3206 3207 3209 3210 3211 3212 3214 3215 3216 3217 3218 3219 3220 3220 3221 3222 3222 3222 3223 3223 3224 3224 3224 3224 3224
3180 3182 3184 3186 3187 3188 3190 3191 3193 3195 3196 3197 3198 3199 3199 3201 3202 3204 3205 3206 3208 3209 3210 3211 3213 3214 3214 3216 3217 3218 3219 3220 3220 3220 3220 3221 3221 3222 3222 3223 3223 3223
3177 3179 3181 3183 3184 3185 3187 3189 3190 3192 3193 3194 3195 3196 3197 3198 3199 3201 3202 3204 3205 3207 3208 3209 3210 3211 3212 3214 3215 3216 3217 3218 3218 3218 3218 3219 3220 3220 3221 3221 3221 3221
3174 3176 3178 3180 3181 3182 3184 3186 3187 3189 3190 3191 3192 3193 3195 3196 3197 3198 3199 3201 3202 3204 3205 3206 3208 3209 3210 3211 3213 3214 3214 3215 3216 3216 3217 3217 3218 3218 3219 3219 3219 3219
3171 3173 3175 3176 3178 3179 3181 3183 3184 3186 3188 3189 3190 3191 3192 3193 3194 3196 3197 3198 3199 3201 3202 3203 3205 3206 3207 3208 3210 3211 3212 3213 3214 3215 3215 3215 3216 3216 3216 3216 3216 3217
3168 3170 3171 3173 3174 3176 3178 3180 3182 3183 3185 3186 3188 3189 3189 3190 3192 3193 3194 3195 3196 3197 3199 3201 3202 3203 3204 3205 3207 3209 3210 3210 3211 3212 3213 3213 3213 3214 3214 3214 3214 3214
3165 3167 3168 3170 3171 3173 3175 3177 3179 3180 3182 3183 3185 3186 3186 3188 3189 3190 3191 3192 3193 3194 3196 3198 3199 3201 3202 3203 3204 3206 3207 3208 3208 3209 3210 3210 3211 3212 3212 3211 3211 3212
3162 3164 3165 3167 3169 3170 3172 3174 3176 3177 3178 3180 3182 3183 3184 3185 3186 3187 3188 3188 3190 3192 3193 3195 3197 3198 3199 3200 3201 3203 3204 3205 3205 3206 3207 3207 3208 3209 3209 3209 3209 3209
3159 3161 3163 3165 3166 3168 3169 3171 3172 3174 3175 3176 3178 3180 3181 3182 3183 3184 3185 3186 3188 3189 3191 3192 3193 3195 3196 3197 3198 3199 3201 3202 3202 3203 3204 3204 3205 3206 3206 3206 3206 3206
3157 3159 3161 3163 3164 3165 3167 3168 3169 3170 3172 3173 3175 3176 3177 3178 3180 3181 3182 3183 3184 3186 3188 3189 3190 3191 3192 3194 3195 3196 3197 3198 3199 3200 3201 3201 3202 3203 3203 3203 3203 3204
3154 3156 3158 3160 3161 3162 3164 3165 3166 3168 3169 3170 3171 3173 3174 3175 3177 3178 3178 3179 3181 3183 3184 3185 3186 3187 3188 3190 3191 3192 3194 3195 3196 3197 3198 3198 3199 3199 3200 3200 3200 3201
3152 3154 3155 3157 3158 3159 3161 3162 3164 3165 3166 3167 3168 3169 3171 3172 3174 3174 3175 3175 3177 3179 3180 3181 3182 3183 3185 3187 3188 3190 3191 3192 3193 3194 3194 3195 3195 3196 3196 3196 3197 3198
3149 3151 3152 3153 3155 3156 3158 3160 3161 3162 3163 3163 3165 3166 3168 3169 3170 3171 3171 3172 3173 3175 3176 3177 3178 3180 3181 3183 3185 3186 3187 3188 3189 3190 3191 3192 3192 3192 3192 3192 3193 3194
3146 3147 3148 3150 3152 3153 3155 3157 3158 3159 3159 3160 3161 3163 3165 3166 3167 3168 3169 3169 3169 3171 3172 3173 3174 3176 3178 3179 3181 3182 3183 3185 3185 3186 3187 3188 3188 3188 3188 3188 3188 3189
3142 3143 3145 3146 3148 3150 3152 3154 3155 3156 3156 3157 3159 3160 3162 3163 3163 3165 3166 3166 3166 3167 3168 3169 3170 3172 3174 3175 3177 3179 3180 3180 3181 3182 3183 3184 3184 3184 3185 3184 3184 3184
3138 3140 3142 3143 3145 3147 3149 3150 3152 3153 3154 3155 3156 3157 3158 3159 3160 3161 3162 3163 3163 3164 3164 3166 3166 3167 3169 3171 3173 3174 3175 3176 3177 3177 3178 3179 3180 3180 3180 3180 3180 3180
3135 3137 3139 3140 3142 3144 3146 3147 3149 3150 3151 3152 3153 3153 3154 3155 3157 3158 3159 3159 3160 3161 3161 3162 3163 3164 3165 3167 3169 3170 3171 3172 3172 3172 3173 3174 3175 3175 3175 3176 3176 3175
3132 3134 3136 3138 3139 3141 3143 3144 3146 3147 3148 3149 3149 3150 3151 3152 3153 3154 3155 3156 3156 3157 3157 3158 3159 3160 3161 3163 3165 3166 3167 3168 3168 3167 3167 3168 3170 3170 3170 3171 3171 3171
3129 3131 3133 3135 3136 3138 3140 3142 3143 3144 3145 3146 3146 3147 3147 3148 3149 3150 3151 3152 3152 3153 3153 3154 3155 3155 3156 3158 3160 3161 3163 3163 3163 3163 3162 3163 3164 3165 3165 3165 3166 3166
3126 3128 3130 3132 3133 3135 3137 3139 3140 3141 3142 3142 3143 3143 3144 3144 3145 3145 3146 3147 3148 3148 3149 3150 3150 3150 3151 3153 3154 3156 3157 3158 3158 3158 3158 3159 3159 3159 3160 3160 3160 3161
3123 3125 3127 3128 3130 3132 3134 3135 3136 3137 3137 3138 3139 3139 3140 3140 3140 3140 3141 3142 3143 3143 3144 3144 3145 3145 3146 3147 3148 3150 3151 3152 3152 3152 3152 3153 3153 3153 3154 3154 3154 3155
3120 3121 3123 3125 3126 3128 3129 3130 3131 3132 3132 3133 3134 3135 3135 3135 3135 3135 3136 3136 3137 3138 3138 3138 3139 3140 3141 3142 3142 3143 3145 3146 3146 3146 3146 3147 3147 3147 3147 3147 3147 3148